| time (UTC) | temp F | wind direction | speed MPH | gust MPH | rain 1hr in | rain 24hr in | rain mn in | humidity % | barometer mb |
| 20260509164240 | 62 | 196 | 0.0 | 4.0 | 0.00 | 0.00 | 0.00 | 76 | 1014.1 |
| 20260509163222 | 62 | 157 | 0.0 | 3.0 | 0.00 | 0.00 | 0.00 | 78 | 1014.2 |
| 20260509162236 | 61 | 27 | 0.0 | 4.0 | 0.00 | 0.00 | 0.00 | 79 | 1014.2 |
| 20260509161208 | 60 | 127 | 0.0 | 4.0 | 0.00 | 0.00 | 0.00 | 80 | 1014.1 |
| 20260509160207 | 60 | 148 | 0.0 | 3.0 | 0.00 | 0.00 | 0.00 | 82 | 1014.2 |
| 20260509153953 | 58 | 76 | 0.0 | 3.0 | 0.00 | 0.00 | 0.00 | 85 | 1014.0 |
| 20260509152923 | 57 | 104 | 0.0 | 2.0 | 0.00 | 0.00 | 0.00 | 86 | 1013.9 |
| 20260509151857 | 56 | 153 | 0.0 | 2.0 | 0.00 | 0.00 | 0.00 | 88 | 1013.9 |
| 20260509150903 | 55 | 166 | 0.0 | 2.0 | 0.00 | 0.00 | 0.00 | 89 | 1013.9 |
| 20260509145908 | 55 | 128 | 0.0 | 2.0 | 0.00 | 0.00 | 0.00 | 89 | 1013.9 |
| 20260509144916 | 54 | 235 | 0.0 | 4.0 | 0.00 | 0.00 | 0.00 | 89 | 1014.0 |
| 20260509143930 | 54 | 130 | 0.0 | 1.0 | 0.00 | 0.00 | 0.00 | 90 | 1013.9 |
| 20260509142905 | 53 | 196 | 0.0 | 4.0 | 0.00 | 0.00 | 0.00 | 90 | 1013.9 |
| 20260509141847 | 53 | 191 | 0.0 | 2.0 | 0.00 | 0.00 | 0.00 | 90 | 1013.9 |
| 20260509135720 | 53 | 131 | 0.0 | 2.0 | 0.00 | 0.00 | 0.00 | 90 | 1013.8 |
| 20260509134725 | 53 | 233 | 0.0 | 2.0 | 0.00 | 0.00 | 0.00 | 90 | 1013.8 |
| 20260509133742 | 53 | 189 | 0.0 | 2.0 | 0.00 | 0.00 | 0.00 | 90 | 1013.7 |
| 20260509132804 | 53 | 168 | 0.0 | 0.0 | 0.00 | 0.00 | 0.00 | 90 | 1013.7 |
| 20260509130654 | 53 | 167 | 0.0 | 2.0 | 0.00 | 0.00 | 0.00 | 89 | 1013.6 |
| 20260509125635 | 53 | 191 | 0.0 | 0.0 | 0.00 | 0.00 | 0.00 | 89 | 1013.5 |
| 20260509124658 | 53 | 148 | 0.0 | 1.0 | 0.00 | 0.00 | 0.00 | 89 | 1013.5 |
| 20260509123701 | 53 | 167 | 0.0 | 1.0 | 0.00 | 0.00 | 0.00 | 89 | 1013.6 |
| 20260509122644 | 54 | 163 | 0.0 | 0.0 | 0.00 | 0.00 | 0.00 | 89 | 1013.6 |
| 20260509121624 | 54 | 178 | 0.0 | 0.0 | 0.00 | 0.00 | 0.00 | 90 | 1013.6 |
| 20260509120649 | 54 | 153 | 0.0 | 0.0 | 0.00 | 0.00 | 0.00 | 90 | 1013.5 |
| 20260509115650 | 54 | 165 | 0.0 | 1.0 | 0.00 | 0.00 | 0.00 | 90 | 1013.6 |
| 20260509114711 | 54 | 167 | 0.0 | 2.0 | 0.00 | 0.00 | 0.00 | 90 | 1013.7 |
| 20260509112522 | 54 | 164 | 0.0 | 0.0 | 0.00 | 0.00 | 0.00 | 90 | 1013.6 |
| 20260509111542 | 54 | 166 | 0.0 | 2.0 | 0.00 | 0.00 | 0.00 | 90 | 1013.6 |
| 20260509110534 | 54 | 178 | 0.0 | 0.0 | 0.00 | 0.00 | 0.00 | 90 | 1013.7 |
| 20260509105506 | 54 | 179 | 0.0 | 1.0 | 0.00 | 0.00 | 0.00 | 90 | 1013.7 |
| 20260509104518 | 54 | 186 | 0.0 | 0.0 | 0.00 | 0.00 | 0.00 | 89 | 1013.7 |
| 20260509103443 | 54 | 187 | 0.0 | 2.0 | 0.00 | 0.00 | 0.00 | 90 | 1013.7 |
| 20260509102437 | 54 | 82 | 0.0 | 2.0 | 0.00 | 0.00 | 0.00 | 90 | 1013.7 |
| 20260509101448 | 54 | 182 | 0.0 | 2.0 | 0.00 | 0.00 | 0.00 | 90 | 1013.8 |
| 20260509100456 | 54 | 104 | 0.0 | 2.0 | 0.00 | 0.00 | 0.00 | 90 | 1013.8 |
| 20260509095422 | 54 | 196 | 0.0 | 1.0 | 0.00 | 0.00 | 0.00 | 90 | 1013.8 |
| 20260509094349 | 53 | 171 | 0.0 | 4.0 | 0.00 | 0.00 | 0.00 | 89 | 1014.0 |
| 20260509093414 | 53 | 201 | 0.0 | 4.0 | 0.00 | 0.00 | 0.00 | 89 | 1014.2 |
| 20260509092416 | 53 | 183 | 0.0 | 3.0 | 0.00 | 0.00 | 0.00 | 89 | 1014.1 |
| 20260509091426 | 53 | 171 | 0.0 | 0.0 | 0.00 | 0.00 | 0.00 | 89 | 1014.0 |
| 20260509090423 | 53 | 190 | 0.0 | 2.0 | 0.00 | 0.00 | 0.00 | 88 | 1014.0 |
| 20260509085429 | 53 | 177 | 0.0 | 0.0 | 0.00 | 0.00 | 0.00 | 89 | 1014.0 |
| 20260509084430 | 53 | 161 | 0.0 | 0.0 | 0.00 | 0.00 | 0.00 | 89 | 1014.1 |
| 20260509081216 | 54 | 160 | 0.0 | 0.0 | 0.00 | 0.00 | 0.00 | 88 | 1014.4 |
| 20260509080232 | 54 | 161 | 0.0 | 0.0 | 0.00 | 0.00 | 0.00 | 88 | 1014.4 |
| 20260509075205 | 54 | 180 | 0.0 | 0.0 | 0.00 | 0.00 | 0.00 | 88 | 1014.5 |
| 20260509074131 | 54 | 123 | 0.0 | 1.0 | 0.00 | 0.00 | 0.00 | 88 | 1014.5 |
| 20260509073115 | 54 | 185 | 0.0 | 3.0 | 0.00 | 0.00 | 0.00 | 88 | 1014.4 |
| 20260509072128 | 54 | 193 | 0.0 | 2.0 | 0.00 | 0.00 | 0.00 | 88 | 1014.5 |
| 20260509071133 | 53 | 182 | 0.0 | 0.0 | 0.00 | 0.00 | 0.00 | 88 | 1014.4 |
| 20260509070133 | 53 | 184 | 0.0 | 0.0 | 0.00 | 0.00 | 0.00 | 88 | 1014.6 |
| 20260509065138 | 53 | 144 | 0.0 | 1.0 | 0.00 | 0.00 | 0.00 | 88 | 1014.6 |
| 20260509064109 | 54 | 188 | 0.0 | 0.0 | 0.00 | 0.00 | 0.00 | 88 | 1014.6 |
| 20260509063112 | 54 | 140 | 0.0 | 0.0 | 0.00 | 0.00 | 0.00 | 88 | 1014.6 |
| 20260509062050 | 54 | 159 | 0.0 | 2.0 | 0.00 | 0.00 | 0.00 | 88 | 1014.7 |
| 20260509061034 | 54 | 151 | 0.0 | 2.0 | 0.00 | 0.00 | 0.00 | 88 | 1014.7 |
| 20260509060031 | 54 | 207 | 0.0 | 0.0 | 0.00 | 0.00 | 0.00 | 87 | 1014.7 |
| 20260509055008 | 54 | 186 | 0.0 | 2.0 | 0.00 | 0.00 | 0.00 | 87 | 1014.7 |
| 20260509054033 | 54 | 170 | 0.0 | 2.0 | 0.00 | 0.00 | 0.00 | 87 | 1014.8 |
| 20260509051850 | 54 | 162 | 0.0 | 0.0 | 0.00 | 0.00 | 0.00 | 86 | 1014.8 |
| 20260509050821 | 55 | 178 | 0.0 | 0.0 | 0.00 | 0.00 | 0.00 | 87 | 1014.8 |
| 20260509045801 | 55 | 184 | 0.0 | 2.0 | 0.00 | 0.00 | 0.00 | 86 | 1014.7 |
| 20260509044745 | 55 | 196 | 0.0 | 2.0 | 0.00 | 0.00 | 0.00 | 86 | 1014.6 |
| 20260509043743 | 55 | 175 | 0.0 | 1.0 | 0.00 | 0.00 | 0.00 | 85 | 1014.6 |
| 20260509042734 | 55 | 165 | 0.0 | 1.0 | 0.00 | 0.00 | 0.00 | 85 | 1014.6 |
| 20260509041734 | 55 | 193 | 0.0 | 1.0 | 0.00 | 0.00 | 0.00 | 84 | 1014.5 |
| 20260509040736 | 56 | 184 | 0.0 | 0.0 | 0.00 | 0.00 | 0.00 | 84 | 1014.4 |
| 20260509034542 | 56 | 144 | 0.0 | 1.0 | 0.00 | 0.00 | 0.00 | 83 | 1014.4 |
| 20260509033511 | 57 | 154 | 0.0 | 0.0 | 0.00 | 0.00 | 0.00 | 83 | 1014.3 |
| 20260509032530 | 57 | 143 | 0.0 | 1.0 | 0.00 | 0.00 | 0.00 | 83 | 1014.3 |
| 20260509031537 | 57 | 148 | 0.0 | 1.0 | 0.00 | 0.00 | 0.00 | 82 | 1014.2 |
| 20260509030521 | 58 | 165 | 0.0 | 0.0 | 0.00 | 0.00 | 0.00 | 81 | 1014.3 |
| 20260509025519 | 58 | 169 | 0.0 | 3.0 | 0.00 | 0.00 | 0.00 | 80 | 1014.2 |
| 20260509024448 | 59 | 172 | 0.0 | 4.0 | 0.00 | 0.00 | 0.00 | 79 | 1014.1 |
| 20260509023445 | 60 | 161 | 0.0 | 3.0 | 0.00 | 0.00 | 0.00 | 79 | 1014.1 |
| 20260509022420 | 60 | 140 | 0.0 | 3.0 | 0.00 | 0.00 | 0.00 | 78 | 1014.0 |
| 20260509021436 | 61 | 120 | 0.0 | 2.0 | 0.00 | 0.00 | 0.00 | 77 | 1013.9 |
| 20260509020457 | 62 | 85 | 0.0 | 1.0 | 0.00 | 0.00 | 0.00 | 76 | 1013.8 |
| 20260509015447 | 62 | 119 | 0.0 | 5.0 | 0.00 | 0.00 | 0.00 | 76 | 1013.8 |
| 20260509014440 | 63 | 155 | 0.0 | 5.0 | 0.00 | 0.00 | 0.00 | 75 | 1013.8 |
| 20260509013431 | 63 | 183 | 0.0 | 5.0 | 0.00 | 0.00 | 0.00 | 75 | 1013.9 |
| 20260509012449 | 63 | 172 | 1.0 | 5.0 | 0.00 | 0.00 | 0.00 | 74 | 1014.0 |
| 20260509011416 | 64 | 147 | 0.0 | 3.0 | 0.00 | 0.00 | 0.00 | 73 | 1014.0 |
| 20260509010357 | 65 | 188 | 0.0 | 4.0 | 0.00 | 0.00 | 0.00 | 73 | 1014.1 |
| 20260509005327 | 65 | 135 | 0.0 | 4.0 | 0.00 | 0.00 | 0.00 | 73 | 1014.3 |
| 20260509004252 | 65 | 123 | 0.0 | 4.0 | 0.00 | 0.00 | 0.00 | 72 | 1014.2 |
| 20260509003220 | 66 | 202 | 0.0 | 6.0 | 0.00 | 0.00 | 0.00 | 70 | 1014.2 |
| 20260509002216 | 66 | 153 | 1.0 | 6.0 | 0.00 | 0.00 | 0.00 | 70 | 1014.3 |
| 20260509001213 | 67 | 90 | 0.0 | 5.0 | 0.00 | 0.00 | 0.00 | 71 | 1014.4 |
| 20260509000235 | 67 | 238 | 1.0 | 5.0 | 0.00 | 0.00 | 0.00 | 69 | 1014.4 |
| 20260508235249 | 67 | 118 | 0.0 | 4.0 | 0.00 | 0.00 | 0.00 | 70 | 1014.5 |
| 20260508234242 | 67 | 207 | 1.0 | 6.0 | 0.00 | 0.00 | 0.00 | 70 | 1014.4 |
| 20260508232129 | 68 | 122 | 1.0 | 5.0 | 0.00 | 0.00 | 0.00 | 69 | 1014.6 |
| 20260508231142 | 68 | 180 | 1.0 | 7.0 | 0.00 | 0.00 | 0.00 | 68 | 1014.8 |
| 20260508230149 | 68 | 171 | 1.0 | 7.0 | 0.00 | 0.00 | 0.00 | 67 | 1014.9 |
| 20260508225142 | 68 | 190 | 1.0 | 6.0 | 0.00 | 0.00 | 0.00 | 68 | 1015.0 |
| 20260508224145 | 69 | 147 | 0.0 | 4.0 | 0.00 | 0.00 | 0.00 | 68 | 1015.1 |
| 20260508221941 | 68 | 213 | 1.0 | 6.0 | 0.00 | 0.00 | 0.00 | 68 | 1015.4 |
| 20260508220925 | 68 | 117 | 2.0 | 8.0 | 0.00 | 0.00 | 0.00 | 69 | 1015.6 |
| 20260508214723 | 69 | 124 | 2.0 | 5.0 | 0.00 | 0.00 | 0.00 | 66 | 1015.8 |
| 20260508213740 | 69 | 188 | 1.0 | 7.0 | 0.00 | 0.00 | 0.00 | 67 | 1015.8 |
| 20260508212750 | 69 | 159 | 1.0 | 7.0 | 0.00 | 0.00 | 0.00 | 68 | 1016.0 |
| 20260508211747 | 68 | 94 | 1.0 | 5.0 | 0.00 | 0.00 | 0.00 | 69 | 1016.2 |
| 20260508210754 | 69 | 149 | 1.0 | 5.0 | 0.00 | 0.00 | 0.00 | 68 | 1016.3 |
| 20260508204623 | 68 | 190 | 1.0 | 8.0 | 0.00 | 0.00 | 0.00 | 70 | 1016.4 |
| 20260508203551 | 68 | 142 | 2.0 | 8.0 | 0.00 | 0.00 | 0.00 | 69 | 1016.5 |
| 20260508202553 | 68 | 199 | 1.0 | 6.0 | 0.00 | 0.00 | 0.00 | 69 | 1016.5 |
| 20260508201559 | 67 | 167 | 1.0 | 6.0 | 0.00 | 0.00 | 0.00 | 71 | 1016.5 |
| 20260508200551 | 66 | 84 | 1.0 | 6.0 | 0.00 | 0.00 | 0.00 | 72 | 1016.6 |
| 20260508194333 | 65 | 61 | 1.0 | 6.0 | 0.00 | 0.00 | 0.00 | 71 | 1016.7 |
| 20260508192143 | 64 | 184 | 1.0 | 5.0 | 0.00 | 0.00 | 0.00 | 74 | 1016.9 |
| 20260508191156 | 64 | 191 | 0.0 | 4.0 | 0.00 | 0.00 | 0.00 | 74 | 1016.9 |
| 20260508185040 | 64 | 171 | 1.0 | 6.0 | 0.00 | 0.00 | 0.00 | 75 | 1017.1 |
| 20260508184053 | 64 | 168 | 0.0 | 7.0 | 0.00 | 0.00 | 0.00 | 75 | 1017.0 |
| 20260508180723 | 63 | 181 | 1.0 | 7.0 | 0.00 | 0.00 | 0.00 | 75 | 1017.0 |
| 20260508175714 | 61 | 133 | 2.0 | 7.0 | 0.00 | 0.00 | 0.00 | 75 | 1017.1 |
| 20260508174649 | 62 | 130 | 1.0 | 5.0 | 0.00 | 0.00 | 0.00 | 76 | 1017.2 |
| 20260508173658 | 61 | 185 | 1.0 | 5.0 | 0.00 | 0.00 | 0.00 | 76 | 1017.2 |
| 20260508172634 | 60 | 136 | 1.0 | 5.0 | 0.00 | 0.00 | 0.00 | 76 | 1017.2 |
| 20260508171616 | 59 | 201 | 1.0 | 4.0 | 0.00 | 0.00 | 0.00 | 77 | 1017.2 |
| 20260508165505 | 59 | 135 | 1.0 | 6.0 | 0.00 | 0.00 | 0.00 | 79 | 1017.1 |